Weather reports worldwide

Advertisment
Konstanz, Germany (10929): temperature & dewpoint: 06.12.2018 00:00:00 - 12.12.2018 00:00:00 (CET)Konstanz, Germany (10929): temperature 5cm & temperature -5cm: 06.12.2018 00:00:00 - 12.12.2018 00:00:00 (CET)Konstanz, Germany (10929): temperature -20cm & temperature -100cm: 06.12.2018 00:00:00 - 12.12.2018 00:00:00 (CET)Konstanz, Germany (10929): wind speed & gusts: 06.12.2018 00:00:00 - 12.12.2018 00:00:00 (CET)Konstanz, Germany (10929): wind direction: 06.12.2018 00:00:00 - 12.12.2018 00:00:00 (CET)Konstanz, Germany (10929): reduced air pressure: 06.12.2018 00:00:00 - 12.12.2018 00:00:00 (CET)Konstanz, Germany (10929): visibility: 06.12.2018 00:00:00 - 12.12.2018 00:00:00 (CET)Konstanz, Germany (10929): sunshine duration: 06.12.2018 00:00:00 - 12.12.2018 00:00:00 (CET)Konstanz, Germany (10929): precipitation: 06.12.2018 00:00:00 - 12.12.2018 00:00:00 (CET)
Date & Time tt [°C] td [°C] tt 5cm [°C] tt -5cm [°C] tt -20cm [°C] tt -100cm [°C] ff [km/h] ff [kn] fx [km/h] fx [kn] dd ppp [hPa] vv [km] sd [min] rr [mm]
12.12.2018 00:00:00 -0,8 -2,2 -2,3 1,4 4,2 9,1 5 3 11 6 WNW 1025,6 39 0 0,0
11.12.2018 23:00:00 -0,9 -2,6 -2,4 1,4 4,3 9,1 5 3 8 5 WNW 1025,4 38 0 0,0
11.12.2018 22:00:00 -0,1 -2,2 -3,0 1,5 4,5 9,1 3 2 6 3 NNE 1025,4 70 0 0,0
11.12.2018 21:00:00 0,2 -2,6 -2,5 1,7 4,7 9,1 4 2 8 4 NNE 1025,5 70 0 0,0
11.12.2018 20:00:00 0,4 -2,2 -2,6 2,0 4,9 9,1 4 2 7 4 W 1025,8 30 0 0,0
11.12.2018 19:00:00 1,1 -2,4 -1,9 2,6 5,1 9,1 4 2 7 4 N 1025,4 70 0 0,0
11.12.2018 18:00:00 1,7 -1,8 -1,5 3,3 5,2 9,1 5 3 6 4 W 1025,1 32 0 0,0
11.12.2018 17:00:00 3,0 -2,3 0,6 4,1 5,2 9,2 4 2 12 6 WSW 1024,7 70 11 0,0
11.12.2018 16:00:00 4,2 -3,3 3,2 5,1 5,1 9,2 6 3 14 7 WNW 1024,7 70 43 0,0
11.12.2018 15:00:00 4,9 -2,3 5,4 5,4 4,9 9,2 8 4 15 8 WSW 1024,4 54 60 0,0
11.12.2018 14:00:00 4,7 -1,7 5,6 4,6 4,7 9,2 9 5 22 12 NW 1024,6 70 8 0,0
11.12.2018 13:00:00 3,7 -1,3 4,1 4,3 4,5 9,2 13 7 22 12 W 1025,2 64 0 0,0
11.12.2018 12:00:00 3,3 -0,5 3,1 3,7 4,3 9,2 12 7 21 12 WNW 1026,0 47 0 0,0
11.12.2018 11:00:00 3,0 -0,4 3,0 2,9 4,3 9,2 13 7 22 12 W 1026,4 41 0 0,0
11.12.2018 10:00:00 2,6 -2,0 1,6 2,2 4,3 9,2 10 5 20 11 WSW 1026,2 70 3 0,0
11.12.2018 09:00:00 2,2 -2,9 1,0 2,0 4,3 9,2 8 4 14 8 WSW 1026,5 70 0 0,0
11.12.2018 08:00:00 2,0 -2,7 0,5 1,9 4,4 9,2 10 5 16 9 W 1026,2 70 0 0,0
11.12.2018 07:00:00 1,7 -2,3 0,4 1,7 4,5 9,2 10 5 23 12 WNW 1026,4 70 0 0,0
11.12.2018 06:00:00 1,7 -2,0 0,0 1,7 4,7 9,2 11 6 19 11 NW 1026,4 70 0 0,0
11.12.2018 05:00:00 0,8 -0,5 -1,0 1,8 4,9 9,3 5 3 12 7 WNW 1026,2 46 0 0,0
11.12.2018 04:00:00 0,9 -0,6 -0,8 2,0 5,1 9,3 6 4 12 6 WNW 1025,8 58 0 0,0
11.12.2018 03:00:00 1,2 0,2 -0,5 2,4 5,2 9,3 5 3 15 8 WSW 1025,4 55 0 0,0
11.12.2018 02:00:00 1,8 0,4 -0,4 3,0 5,3 9,3 6 3 13 7 WNW 1025,0 65 0 0,0
11.12.2018 01:00:00 2,4 0,9 1,9 3,1 5,4 9,3 8 4 17 9 NW 1025,2 64 0 0,0
11.12.2018 00:00:00 2,3 0,9 1,2 3,4 5,5 9,3 11 6 28 15 W 1025,1 70 0 0,2
10.12.2018 23:00:00 3,7 1,3 2,7 3,7 5,6 9,3 16 9 32 17 WNW 1024,9 6 0 0,1
10.12.2018 22:00:00 4,1 -0,1 2,5 3,5 5,8 9,3 16 9 31 17 W 1024,7 61 0 0,0
10.12.2018 21:00:00 4,2 0,0 2,6 3,8 5,9 9,3 18 10 29 16 W 1024,7 70 0 0,0
10.12.2018 20:00:00 4,2 1,5 3,1 4,2 6,0 9,3 16 8 26 14 W 1024,9 70 0 0,0
10.12.2018 19:00:00 3,8 1,8 2,9 4,2 6,1 9,3 14 8 25 13 W 1024,2 70 0 0,0
10.12.2018 18:00:00 3,5 1,9 2,5 4,7 6,2 9,3 10 5 31 17 WNW 1024,2 70 0 1,1
10.12.2018 17:00:00 4,8 1,8 3,8 5,1 6,2 9,3 16 9 35 19 W 1023,8 70 0 0,1
10.12.2018 16:00:00 4,3 2,7 3,9 5,3 6,2 9,3 5 3 15 8 S 1023,8 47 6 0,2
10.12.2018 15:00:00 3,9 2,1 3,5 5,2 6,1 9,3 10 5 33 18 WNW 1024,3 9 0 0,8
10.12.2018 14:00:00 5,6 0,8 4,5 5,5 6,1 9,3 13 7 29 16 W 1024,2 70 6 0,3
10.12.2018 13:00:00 5,6 0,1 5,5 5,3 6,0 9,3 15 8 37 20 W 1024,7 70 27 0,0
10.12.2018 12:00:00 6,5 1,0 6,4 5,2 5,9 9,3 17 9 36 19 W 1024,4 70 25 0,0
10.12.2018 11:00:00 4,5 1,9 4,3 4,6 5,9 9,3 9 5 27 15 W 1025,2 70 0 0,0
10.12.2018 10:00:00 4,2 1,8 4,1 4,4 6,0 9,3 13 7 29 16 W 1024,5 70 2 0,0
10.12.2018 09:00:00 4,5 1,3 4,3 4,3 6,0 9,3 13 7 31 17 W 1023,9 70 0 0,0
10.12.2018 08:00:00 4,5 1,5 3,9 4,3 6,1 9,3 17 9 35 19 W 1023,0 70 0 0,0
10.12.2018 07:00:00 4,8 1,1 4,2 4,4 6,2 9,3 17 9 29 15 W 1022,6 34 0 0,0
10.12.2018 06:00:00 4,7 1,3 4,1 4,4 6,2 9,4 14 8 24 13 WSW 1022,1 70 0 0,0
10.12.2018 05:00:00 4,7 1,5 4,1 4,4 6,3 9,4 11 6 24 13 WSW 1022,4 70 0 0,0
10.12.2018 04:00:00 4,7 1,3 4,1 4,5 6,5 9,4 16 9 27 15 W 1022,0 70 0 0,0
10.12.2018 03:00:00 4,8 1,6 4,0 4,5 6,6 9,4 8 4 21 11 W 1021,3 70 0 0,0
10.12.2018 02:00:00 4,1 2,5 2,2 4,9 6,7 9,4 6 4 29 16 W 1020,4 70 0 0,0
10.12.2018 01:00:00 4,9 2,5 4,1 5,3 6,8 9,4 18 10 33 18 W 1019,0 40 0 0,1
10.12.2018 00:00:00 5,2 3,0 3,7 5,5 6,9 9,4 9 5 46 25 WNW 1018,1 70 0 0,1
09.12.2018 23:00:00 6,1 3,8 5,3 5,8 6,9 9,4 17 9 32 18 W 1016,8 10 0 0,1
09.12.2018 22:00:00 6,3 4,2 5,5 5,9 7,0 9,4 16 8 35 19 WSW 1015,3 70 0 0,0
09.12.2018 21:00:00 6,4 3,6 6,0 5,9 7,0 9,4 18 10 43 23 WSW 1014,4 70 0 0,0
09.12.2018 20:00:00 6,6 3,5 5,9 6,0 7,1 9,4 27 15 52 28 W 1013,3 70 0 0,1
09.12.2018 19:00:00 6,3 4,0 5,4 6,0 7,1 9,4 26 14 48 26 W 1012,2 21 0 0,1
09.12.2018 18:00:00 5,5 3,6 5,0 6,0 7,2 9,4 22 12 45 24 WSW 1011,2 34 0 0,2
09.12.2018 17:00:00 5,8 3,8 5,0 6,3 7,3 9,4 23 12 41 22 W 1010,7 13 0 0,9
09.12.2018 16:00:00 6,3 3,3 5,7 6,6 7,3 9,4 25 13 51 28 WSW 1009,7 38 0 0,0
09.12.2018 15:00:00 6,3 3,6 5,5 6,8 7,3 9,4 29 16 61 33 WSW 1009,3 47 0 0,4
09.12.2018 14:00:00 6,9 3,5 5,8 7,0 7,2 9,4 24 13 58 31 WSW 1009,1 21 0 0,1
09.12.2018 13:00:00 8,0 2,4 7,9 7,5 7,1 9,4 28 15 54 29 W 1008,9 62 25 0,0
09.12.2018 12:00:00 7,7 2,7 7,5 7,4 6,9 9,4 30 16 55 30 WSW 1009,5 43 50 0,0
09.12.2018 11:00:00 7,6 3,2 8,4 6,8 6,9 9,4 27 14 54 29 WSW 1010,6 37 60 0,0
09.12.2018 10:00:00 6,8 2,7 5,7 5,8 6,9 9,4 29 16 55 30 W 1010,4 70 20 0,1
09.12.2018 09:00:00 5,7 3,5 4,8 6,0 6,9 9,4 24 13 58 32 WSW 1009,0 70 0 0,9
09.12.2018 08:00:00 6,7 4,3 5,7 6,3 6,9 9,4 20 11 56 30 WSW 1008,1 70 0 0,8
09.12.2018 07:00:00 7,8 4,7 6,6 6,3 6,9 9,5 31 17 73 39 W 1007,2 14 0 0,9
09.12.2018 06:00:00 8,0 4,1 6,3 6,3 6,9 9,5 33 18 70 38 W 1005,6 26 0 0,0
09.12.2018 05:00:00 8,4 4,8 7,4 6,4 6,9 9,5 37 20 77 41 WSW 1005,8 70 0 2,6
09.12.2018 04:00:00 7,7 5,9 6,8 6,4 6,9 9,5 35 19 79 42 WSW 1006,1 5 0 1,9
09.12.2018 03:00:00 8,7 4,8 7,2 6,2 6,9 9,5 35 19 72 39 WSW 1006,5 70 0 1,2
09.12.2018 02:00:00 8,5 4,4 6,8 5,9 6,9 9,5 38 20 73 39 WSW 1007,3 42 0 0,1
09.12.2018 01:00:00 8,0 3,8 6,7 5,9 6,9 9,5 39 21 71 38 SW 1008,5 70 0 0,0
09.12.2018 00:00:00 6,9 4,2 5,8 5,9 6,9 9,5 27 15 46 25 WSW 1010,5 70 0 0,5
08.12.2018 23:00:00 6,4 3,9 5,4 5,8 6,9 9,5 14 8 26 14 WSW 1011,7 34 0 0,1
08.12.2018 22:00:00 6,1 3,9 5,2 5,8 7,0 9,5 14 7 32 17 SW 1013,4 12 0 0,1
08.12.2018 21:00:00 6,9 3,0 6,4 5,8 7,0 9,5 19 10 49 26 SW 1014,5 70 0 0,0
08.12.2018 20:00:00 7,2 2,4 6,3 5,8 7,1 9,5 22 12 48 26 WSW 1015,3 35 0 0,0
08.12.2018 19:00:00 7,4 2,0 6,9 5,9 7,1 9,5 25 13 58 31 WSW 1015,9 70 0 0,0
08.12.2018 18:00:00 7,2 2,1 6,6 6,0 7,2 9,5 26 14 54 29 WSW 1016,2 70 0 0,0
08.12.2018 17:00:00 7,0 2,3 6,6 6,2 7,2 9,5 29 16 52 28 WSW 1016,5 70 0 0,0
08.12.2018 16:00:00 6,8 2,6 6,1 6,5 7,2 9,5 31 17 61 33 WSW 1016,6 21 0 0,0
08.12.2018 15:00:00 7,1 2,0 7,0 6,7 7,1 9,5 27 14 66 36 WSW 1016,4 70 3 0,0
08.12.2018 14:00:00 7,2 1,5 7,3 6,9 7,0 9,4 33 18 61 33 WSW 1016,5 68 7 0,0
08.12.2018 13:00:00 6,8 1,5 6,3 6,7 6,8 9,4 29 15 51 28 WSW 1017,2 35 31 0,0
08.12.2018 12:00:00 7,5 0,5 7,6 5,8 6,8 9,4 26 14 57 31 WSW 1017,5 55 31 0,0
08.12.2018 11:00:00 6,3 0,3 6,1 5,3 6,9 9,4 29 15 59 32 WSW 1018,1 70 0 0,0
08.12.2018 10:00:00 5,8 0,1 5,4 5,0 6,9 9,4 29 16 59 32 WSW 1018,2 70 9 0,0
08.12.2018 09:00:00 6,1 -0,3 5,5 4,9 7,1 9,4 28 15 49 27 SW 1018,3 70 6 0,0
08.12.2018 08:00:00 5,9 0,0 5,1 5,0 7,2 9,4 22 12 48 26 WSW 1018,5 70 0 0,0
08.12.2018 07:00:00 5,9 0,1 5,3 5,1 7,3 9,4 24 13 41 22 SW 1018,1 70 0 0,0
08.12.2018 06:00:00 5,4 0,4 4,9 5,2 7,5 9,4 19 11 34 18 WSW 1018,1 70 0 0,0
08.12.2018 05:00:00 5,5 0,2 5,1 5,3 7,7 9,4 14 7 38 21 W 1018,2 70 0 0,0
08.12.2018 04:00:00 5,2 0,5 4,2 5,5 7,9 9,4 25 14 53 29 WSW 1017,7 70 0 0,0
08.12.2018 03:00:00 5,2 1,2 4,2 5,8 8,1 9,4 27 14 59 32 WSW 1017,9 70 0 0,0
08.12.2018 02:00:00 5,8 1,8 4,6 6,6 8,2 9,4 29 15 58 32 W 1016,5 70 0 0,2
08.12.2018 01:00:00 6,4 3,3 5,3 7,1 8,3 9,4 32 17 54 29 WSW 1015,3 65 0 0,4
08.12.2018 00:00:00 7,5 4,8 6,5 7,4 8,4 9,4 27 15 58 32 W 1013,2 55 0 0,1
07.12.2018 23:00:00 8,3 4,0 6,8 7,8 8,5 9,4 31 17 62 33 W 1011,1 70 0 3,0
07.12.2018 22:00:00 9,6 6,8 8,2 8,1 8,5 9,4 34 18 61 33 WSW 1010,5 4,4 0 0,2
07.12.2018 21:00:00 9,6 6,5 8,1 8,1 8,6 9,4 28 15 48 26 WSW 1010,2 47 0 0,5
07.12.2018 20:00:00 9,8 6,2 8,2 8,1 8,7 9,4 13 7 36 20 WSW 1010,4 30 0 0,0
07.12.2018 19:00:00 9,5 6,2 8,9 8,0 8,8 9,4 5 3 16 9 WSW 1010,5 70 0 0,0
07.12.2018 18:00:00 8,8 5,9 6,8 8,1 8,9 9,4 10 5 26 14 W 1010,4 68 0 0,0
07.12.2018 17:00:00 9,5 6,3 8,0 8,8 9,0 9,4 10 5 22 12 W 1011,1 63 20 0,0
07.12.2018 16:00:00 10,5 6,4 9,5 9,7 8,9 9,4 12 6 32 17 W 1012,1 70 22 0,0
07.12.2018 15:00:00 11,0 6,5 11,2 9,8 8,8 9,4 16 8 43 23 WSW 1013,5 70 4 0,0
07.12.2018 14:00:00 11,2 6,3 11,4 10,2 8,6 9,3 23 12 41 22 W 1014,2 70 18 0,0
07.12.2018 13:00:00 11,4 6,4 11,4 9,7 8,4 9,3 16 8 23 13 WSW 1014,9 70 3 0,0
07.12.2018 12:00:00 11,1 6,6 11,3 9,2 8,3 9,3 13 7 30 16 W 1016,6 70 4 0,0
07.12.2018 11:00:00 10,7 6,8 10,7 8,6 8,2 9,3 13 7 24 13 WSW 1018,2 70 0 0,0
07.12.2018 10:00:00 10,4 6,5 10,2 8,2 8,2 9,3 11 6 23 12 W 1019,0 70 0 0,0
07.12.2018 09:00:00 10,1 6,4 9,7 8,0 8,2 9,3 14 8 23 12 WSW 1019,8 70 0 0,0
07.12.2018 08:00:00 10,2 6,4 9,6 8,0 8,2 9,3 11 6 26 14 WSW 1020,3 70 0 0,0
07.12.2018 07:00:00 10,1 6,6 9,4 8,0 8,2 9,3 15 8 24 13 WSW 1020,5 70 0 0,0
07.12.2018 06:00:00 10,0 6,6 9,4 8,0 8,2 9,3 9 5 18 10 WSW 1020,8 70 0 0,0
07.12.2018 05:00:00 10,0 6,5 9,5 7,9 8,2 9,3 11 6 22 12 WSW 1021,0 70 0 0,0
07.12.2018 04:00:00 10,1 6,6 9,4 7,9 8,2 9,3 14 8 23 13 WSW 1021,9 70 0 0,0
07.12.2018 03:00:00 9,9 6,7 9,2 7,9 8,2 9,3 12 6 20 11 WSW 1022,4 70 0 0,0
07.12.2018 02:00:00 10,0 6,7 9,3 7,9 8,2 9,3 9 5 19 11 WSW 1023,0 70 0 0,0
07.12.2018 01:00:00 10,1 6,8 9,4 7,8 8,2 9,3 10 5 23 12 W 1023,2 70 0 0,0
07.12.2018 00:00:00 9,8 6,7 8,9 7,7 8,3 9,3 8 4 16 9 W 1023,6 70 0 0,0
06.12.2018 23:00:00 9,6 6,8 8,4 7,8 8,3 9,3 8 5 17 9 WSW 1023,6 70 0 0,0
06.12.2018 22:00:00 9,7 6,9 9,0 8,0 8,4 9,3 10 5 16 9 WSW 1023,8 70 0 0,0
06.12.2018 21:00:00 10,0 6,8 9,1 8,1 8,4 9,3 9 5 18 10 WSW 1024,1 70 0 0,0
06.12.2018 20:00:00 9,8 6,8 8,8 8,1 8,5 9,3 10 5 19 11 W 1024,1 70 0 0,0
06.12.2018 19:00:00 9,9 7,1 9,0 8,4 8,5 9,3 8 4 17 9 WSW 1023,8 70 0 0,0
06.12.2018 18:00:00 10,3 7,4 9,4 8,9 8,5 9,3 9 5 18 10 WSW 1023,5 70 0 0,0
06.12.2018 17:00:00 10,4 7,8 9,9 9,1 8,4 9,3 8 5 15 8 W 1023,3 69 0 0,0
06.12.2018 16:00:00 10,4 7,9 10,2 9,4 8,3 9,3 8 4 22 12 W 1022,9 54 0 0,0
06.12.2018 15:00:00 10,6 7,9 10,8 9,5 8,1 9,3 13 7 26 14 W 1022,5 56 14 0,0
06.12.2018 14:00:00 10,2 7,6 10,2 9,2 7,9 9,3 13 7 31 17 W 1022,8 57 6 0,0
06.12.2018 13:00:00 10,8 8,3 11,2 8,7 7,7 9,3 10 5 17 9 WSW 1022,3 44 5 0,0
06.12.2018 12:00:00 9,3 7,8 9,0 8,3 7,6 9,3 9 5 29 16 WSW 1023,0 29 0 0,1
06.12.2018 11:00:00 9,5 7,1 9,5 7,8 7,5 9,3 13 7 27 14 W 1022,8 43 1 0,0
06.12.2018 10:00:00 8,1 7,3 7,8 7,2 7,4 9,3 6 4 12 7 WNW 1022,9 9 0 0,0
06.12.2018 09:00:00 8,1 6,5 7,7 6,9 7,4 9,3 8 4 21 12 W 1021,8 20 0 0,0
06.12.2018 08:00:00 7,5 6,4 6,8 6,7 7,5 9,3 7 4 15 8 SW 1021,3 15 0 0,0
06.12.2018 07:00:00 7,0 6,3 6,5 6,7 7,5 9,3 5 3 10 5 SE 1021,0 8 0 0,5
06.12.2018 06:00:00 6,9 6,0 6,5 6,7 7,5 9,2 5 3 11 6 WSW 1020,8 6 0 1,4
06.12.2018 05:00:00 6,6 6,2 6,4 6,7 7,5 9,2 5 3 10 5 SSW 1021,0 2,0 0 1,1
06.12.2018 04:00:00 6,4 5,9 6,0 6,7 7,6 9,2 5 3 10 6 SE 1019,8 4,6 0 0,0
06.12.2018 03:00:00 6,3 5,9 5,8 6,7 7,6 9,2 4 2 10 6 SSW 1021,1 4,9 0 0,1
06.12.2018 02:00:00 6,2 5,7 6,0 6,8 7,7 9,2 3 2 9 5 ESE 1020,6 5 0 0,1
06.12.2018 01:00:00 6,4 5,6 6,1 6,8 7,7 9,2 5 3 11 6 W 1021,4 7 0 0,0
06.12.2018 00:00:00 6,5 5,6 6,2 6,8 7,8 9,2 4 2 6 3 W 1021,0 8 0 0,0

tt = temperature
td = dewpoint
tt 5cm = temperature 5cm
tt -5cm = temperature -5cm
tt -20cm = temperature -20cm
tt -100cm = temperature -100cm
ff = wind speed
fx = gusts
dd = wind direction
ppp = reduced air pressure
vv = visibility
sd = sunshine duration
rr = precipitation

Next stations